#timestamp,LO_Frequency,Hit,StdDev 
1629140415.4,286047000.3,N
1629140435.3,286046997.4,N
1629140455.1,286046994.6,N
1629140475.8,286046988.8,N
1629140495.7,286046985.6,N
1629140515.5,286046986.4,N
1629140535.4,286046984.9,N
1629140555.2,286046981.5,N
1629140575.0,286046980.1,N
1629140575.9,286046980.1,N
1629140595.8,286046979.7,N
1629140615.6,286046979.3,N
1629140635.5,286046986.3,N
1629140655.3,286046990.6,N
1629140675.1,286046994.8,N
1629140695.9,286046990.8,N
1629140715.7,286046988.7,N
1629140735.5,286046987.2,N
1629140755.4,286046989.5,N
1629140775.2,286046992.2,N
1629140795.1,286046992.4,N
1629140796.0,286046992.4,N
1629140815.8,286046988.9,N
1629140835.6,286046987.3,N
1629140855.5,286046987.6,N
1629140875.3,286046985.5,N
1629140895.2,286046986.7,N
1629140915.9,286046983.9,N
1629140935.7,286046988.1,N
1629140955.6,286046991.4,N
1629140975.4,286046993.6,N
1629140995.2,286046992.3,N
1629141015.1,286046988.7,N
1629141016.0,286046988.7,N
1629141035.8,286046990.3,N
1629141055.7,286046993.8,N
1629141075.5,286046992.2,N
1629141095.3,286046988.7,N
1629141115.2,286046990.0,N
1629141135.0,286046985.3,Y
1629141135.9,286046985.3,P
1629141155.8,286046998.9,N
1629141175.6,286046999.6,N
1629141195.4,286047000.4,N
1629141215.3,286046998.8,N
1629141235.1,286047000.5,N
1629141255.8,286047004.2,N
1629141275.7,286047005.7,N
1629141295.5,286047003.0,N
1629141315.4,286047005.0,N
1629141335.2,286047007.2,N
1629141355.0,286047006.0,N
1629141355.9,286047006.0,N
1629141375.8,286047005.1,N
1629141395.6,286047004.9,N
1629141415.4,286047004.5,N
1629141435.3,286047004.5,N
1629141455.1,286047007.3,N
1629141475.9,286047006.1,N
1629141495.7,286047011.5,N
1629141515.5,286047016.7,N
1629141535.4,286047018.1,N
1629141555.2,286047020.1,N
1629141575.1,286047023.4,Y
1629141576.0,286047023.4,P
1629141595.8,286047020.3,N
1629141615.6,286047018.5,N
1629141635.5,286047016.2,N
1629141655.3,286047014.5,N
1629141675.1,286047015.1,N
1629141695.9,286047015.1,N
1629141715.7,286047017.1,Y
1629141735.6,286047002.4,P
1629141755.4,286047000.0,N
1629141775.2,286046998.1,N
1629141795.1,286047002.9,N
1629141796.0,286047002.9,N
1629141815.8,286047005.1,N
1629141835.7,286047008.8,N
1629141855.5,286047008.5,N
1629141875.3,286047012.7,N
1629141895.2,286047013.4,N
1629141915.0,286047009.8,N
1629141915.9,286047009.8,N
1629141935.8,286047006.2,N
1629141955.6,286047010.5,N
1629141975.4,286047013.3,N
1629141995.3,286047014.3,N
1629142015.1,286047015.1,N
1629142035.8,286047015.3,N
1629142055.7,286047012.8,N
1629142075.5,286047013.9,N
1629142095.3,286047012.7,N
1629142115.2,286047018.1,Y
1629142135.0,286047009.3,P
1629142135.9,286047009.3,P
1629142155.8,286047018.3,P
1629142175.6,286047016.2,Y
1629142195.4,286047002.9,P
1629142215.3,286047000.1,N
1629142235.1,286047002.5,N
1629142255.9,286047002.5,N
1629142275.7,286047002.6,N
1629142295.5,286047002.8,N
1629142315.4,286046998.8,N
1629142335.2,286046997.3,N
1629142355.0,286046997.2,N
1629142355.9,286046997.2,N
1629142375.8,286046997.6,N
1629142395.6,286046995.9,N
1629142415.5,286046998.0,N
1629142435.3,286046997.8,N
1629142455.1,286046995.2,N
1629142475.9,286046999.4,N
1629142495.7,286047002.1,N
1629142515.5,286047010.7,N
1629142535.4,286047012.5,N
1629142555.2,286047018.7,Y
1629142575.1,286047018.9,P
1629142576.0,286047018.9,N
1629142595.8,286047017.7,N
1629142615.6,286047015.4,N
1629142635.5,286047011.0,N
1629142655.3,286047010.0,N
1629142675.1,286047006.4,N
1629142695.9,286046999.7,N
1629142715.7,286047003.8,N
1629142735.6,286047006.4,N
1629142755.4,286047004.7,N
1629142775.2,286047001.4,N
1629142795.1,286047004.2,N
1629142796.0,286047004.2,N
1629142815.8,286047003.5,N
1629142835.7,286047005.9,N
1629142855.5,286047005.9,N
1629142875.3,286047005.2,N
1629142895.2,286047004.6,N
1629142915.9,286047009.3,N
1629142935.7,286047013.5,N
1629142955.6,286047012.6,N
1629142975.4,286047012.5,N
1629142995.2,286047015.0,N
1629143015.1,286047019.6,Y
1629143016.0,286047019.6,P
1629143035.8,286047014.6,N
1629143055.7,286047021.3,P
1629143075.5,286047026.7,Y
1629143095.3,286047005.4,P
1629143115.2,286047004.4,N
1629143135.0,286047002.5,N
1629143135.9,286047002.5,N
1629143155.8,286047004.5,N
1629143175.6,286047002.6,N
1629143195.4,286047001.3,N
1629143215.3,286047003.5,N
1629143235.1,286047004.3,N
1629143255.8,286047001.6,N
1629143275.7,286047001.6,N
1629143295.5,286047000.5,N
1629143315.4,286047005.3,N
1629143335.2,286047004.6,N
1629143355.0,286047012.1,Y
1629143355.9,286047012.1,P
1629143375.8,286047009.5,N
1629143395.6,286047009.9,N
1629143415.4,286047006.1,N
1629143435.3,286047015.2,Y
1629143455.1,286047010.8,P
1629143475.9,286047013.6,P
1629143495.7,286047014.3,P
1629143515.5,286047018.0,Y
1629143535.4,286047008.8,P
1629143555.2,286047011.1,P
1629143575.0,286047011.0,P
1629143576.0,286047011.0,Y
1629143595.8,286047002.6,P
1629143615.6,286047004.4,N
1629143635.5,286047006.0,N
1629143655.3,286047007.8,N
1629143675.1,286047013.2,Y
1629143695.9,286047011.6,P
1629143715.7,286047013.6,P
1629143735.6,286047016.9,P
1629143755.4,286047019.0,Y
1629143775.2,286047008.2,P
1629143795.1,286047009.6,P
1629143796.0,286047009.6,P
1629143815.8,286047005.2,Y
1629143835.7,286046992.5,P
1629143855.5,286046993.1,N
1629143875.3,286046991.3,N
1629143895.2,286046987.1,N
1629143915.0,286046984.4,N
1629143915.9,286046984.4,N
1629143935.8,286046989.6,N
1629143955.6,286046990.3,N
1629143975.4,286046987.0,N
1629143995.3,286046983.0,N
